sat.trackr.live / text

‹ back to catalog

STARLINK-3259

NORAD 50192 · 2021-125AN

PAYLOAD ACTIVE UNKNOWN

§ Identity

Operator
Country
US
Launch date
2021-12-18
Launch site
AFWTR
Launch vehicle
Mass (kg)
RCS (m²)

Purposes: comms

External: N2YO · Heavens-Above · Gunter

§ Orbital elements

Epoch: 2026-09-20T00:47:19.548096Z

Period
93.90 min
Inclination
53.1607°
Eccentricity
0.0001022
Mean motion
15.33551121 rev/d
Perigee alt
464.5 km
Apogee alt
465.9 km
Semi-major
6,843.4 km
B*
5.5691e-5
RAAN
76.0465°
Arg perigee
90.7254°
Mean anomaly
269.3865°
Rev number
26,621

§ Raw data

STARLINK-32591 50192U 21125AN  26263.03286514  .00001459  00000+0  55691-4 0  99942 50192  53.1607  76.0465 0001022  90.7254 269.3865 15.33551121266214

JSON: /api/v1/satellites/50192 · /tle

For live sub-satellite position, see the globe view (requires WebGL).

§ Visibility from observer

Set your observer location to see the next 7 days of passes ≥ 10°. The values pass through the URL so the page stays shareable.

No JS? Fill the form by hand. The geolocation button needs JavaScript.